Regional Weather Roundup
Issued by NWS

Home | Current Version | Previous Version | Graphics & Text | Print | Product List | Glossary On
Versions: 1 2 3 4 5 6 7 8 9 10 11 12 13 14 15 16 17 18 19 20 21 22 23 24 25 26 27 28 29 30 31 32 33 34 35 36 37 38 39 40 41 42 43 44 45 46 47 48 49 50
749
ASUS45 KBOU 211907
RWRCO

WEATHER ROUNDUP FOR COLORADO
NATIONAL WEATHER SERVICE DENVER/BOULDER CO
100 PM MDT SAT OCT 21 2017

NOTE: "FAIR" INDICATES FEW OR NO CLOUDS BELOW 12000 FEET WITH NO
SIGNIFICANT WEATHER AND/OR OBSTRUCTIONS TO VISIBILITY.

COZ001>005-013-030-031-212000-
...NORTHWEST COLORADO...

CITY           SKY/WX    TMP DP  RH WIND       PRES   REMARKS
CRAIG          FAIR      36  24  62 CALM      30.17S
HAYDEN         FAIR      35  21  56 SW6       30.18S WCI  30
MEEKER         FAIR      39  21  48 CALM      30.18S
RABBIT EARS PA CLOUDY   N/A N/A N/A W9        30.12S FOG
STEAMBOAT SPGS PTSUNNY   34  21  60 SW10      30.16S WCI  26
WALDEN         NOT AVBL
$$

COZ006>008-011-212000-
...WEST CENTRAL VALLEYS...

CITY           SKY/WX    TMP DP  RH WIND       PRES   REMARKS
GRAND JUNCTION FAIR      52  16  24 VRB5      30.17F
MONTROSE       FAIR      49  13  23 W8        30.19F
EAGLE          FAIR      41  18  39 W13G18    30.18S
RIFLE          FAIR      47  19  33 NW6       30.17F
DELTA          FAIR      56  11  16 W9G18     30.16F
NUCLA          FAIR      50   0  12 SW5       30.20F
$$

COZ017>023-064>068-212000-
...SOUTHWEST COLORADO...

CITY           SKY/WX    TMP DP  RH WIND       PRES   REMARKS
DURANGO        FAIR      54   4  13 SW21G32   30.08R
CORTEZ         FAIR      52   4  14 NW17G24   30.16R
PAGOSA SPRINGS FAIR      51   4  15 SW13G21   30.09S
TELLURIDE      NOT AVBL
WOLF CREEK PAS FAIR      32   5  32 SW18G25   30.21R WCI  20
$$

COZ009-010-012-014-032>034-037-058>063-212000-
...CENTRAL COLORADO...

CITY           SKY/WX    TMP DP  RH WIND       PRES   REMARKS
ASPEN          FAIR      35  19  52 NW7       30.16F WCI  29
BUENA VISTA    FAIR      43   5  21 NW13G25   30.09S
COPPER MTN     FAIR      21  12  68 MISG      30.12R
BERTHOUD PASS  CLOUDY    10   1  67 NW37G53   30.05R WCI -14
COTTONWOOD PAS FAIR      39  14  35 NW7       30.11R
GUNNISON       FAIR      41  10  28 SW17G24   30.14F
KREMMLING      PTSUNNY   43  23  45 NW6       30.16F
LEADVILLE      FAIR      26  11  52 W14G23    30.13R WCI  14
MONARCH PASS     N/A     18  14  86 W33G46    30.20R WCI  -3
SALIDA         FAIR      47  11  23 W20G29    30.15S
SUNLIGHT       FAIR      21  18  86 MISG      30.21S
WILKERSON PASS FAIR      28   7  40 W6        30.14S WCI  22
$$

COZ069>075-212000-
...SAN LUIS VALLEY/SANGRE DE CRISTO MOUNTAINS...

CITY           SKY/WX    TMP DP  RH WIND       PRES   REMARKS
ALAMOSA        FAIR      50  16  25 N14G23    30.06R
DEL NORTE      FAIR      49  18  29 SE14      30.05S
LA VETA PASS   FAIR      43  21  42 NW5       30.22R
SAGUACHE       FAIR      43  14  31 N20G26    30.12R
$$

COZ035-036-038>040-212000-
...NORTHERN COLORADO FRONT RANGE...

CITY           SKY/WX    TMP DP  RH WIND       PRES   REMARKS
DENVER INTL AP FAIR      51  11  20 W21G31    30.02F
DMNS CITY PARK   N/A     50   9  19 W15G32    30.05S
AURORA         MOSUNNY   51   6  16 W24G32    30.04F
FRONT RANGE AP MOSUNNY   54  12  19 W23G35    30.05S
ERIE MUNI ARPT FAIR      53   8  16 W10G24    30.10F
BOULDER MUN AP FAIR      50  10  20 W22G30    30.04F
CENTENNIAL     FAIR      50   7  17 NW21G30   30.04S
BROOMFIELD     MOSUNNY   50  12  22 W18G26    30.07S
FORT COLLINS   FAIR      51  13  21 NW21G31   30.05S
LONGMONT       FAIR      54   9  16 NW8G18    30.06S
$$

COZ041-046-047-076>085-087-088-212000-
...PIKES PEAK/PALMER DIVIDE AND SOUTHERN FOOTHILLS...

CITY           SKY/WX    TMP DP  RH WIND       PRES   REMARKS
COLO. SPRINGS  FAIR      54  12  18 N17G28    30.03R
A. F. ACADEMY  FAIR      52   5  15 N22G28    30.01F
SCHRIEVER AFB  FAIR      51   9  18 N20G25    30.02R
CHEYENNE MTN   PTSUNNY   50   9  19 NE6       29.98R
ELLICOTT         N/A    N/A N/A N/A N24G38    30.00S
FALCON         FAIR      48   7  18 N18G31    30.05S
FORT CARSON    PTSUNNY   53  11  18 N12G20    30.00R
LIMON          FAIR      54   7  15 NW31G37   30.00S
MONUMENT HILL  FAIR      43   7  22 N9G21     30.07F
CANON CITY     FAIR      61  18  18 W13G21    29.99S
WALSENBURG     FAIR      57  28  33 SE6       30.02S
TRINIDAD       FAIR      55  29  36 E10       30.01S
$$

COZ042>045-048>051-090-091-212000-
...NORTHEAST COLORADO...

CITY           SKY/WX    TMP DP  RH WIND       PRES   REMARKS
GREELEY ARPT   FAIR      53  15  22 W31G41    30.00F
AKRON          FAIR      54  16  22 NW25G39   29.98F
BURLINGTON     FAIR      57  21  24 N20G33    29.97R
WRAY           FAIR      61  21  21 NW23G32   29.95R
YUMA           NOT AVBL
STERLING       FAIR      55  18  22 NW21G36   29.96F
HOLYOKE        FAIR      61  23  23 NW20G31   29.94S
FORT MORGAN    FAIR      56  12  17 W31G37    30.01S
$$

COZ086-089-092>099-212000-
...SOUTHEAST COLORADO...

CITY           SKY/WX    TMP DP  RH WIND       PRES   REMARKS
PUEBLO         FAIR      59  18  20 VRB3      29.98R
LA JUNTA       FAIR      63  16  16 N15G22    29.98F
LAMAR          FAIR      64  16  15 N22G31    29.94F
SPRINGFIELD      N/A     57  24  28 N22G29    29.96S
$$




USA.gov is the U.S. government's official web portal to all federal, state and local government web resources and services.